Weather History for Siren, WI

Change the Weather History Date:

Friday, January 18, 2013

  Actual Average Record
Temperature  
Mean Temperature 22 °F -  
Max Temperature 35 °F - - ()
Min Temperature 8 °F - - ()
Degree Days  
Heating Degree Days 44    
Moisture  
Dew Point 17 °F    
Average Humidity 83    
Maximum Humidity 100    
Minimum Humidity 69    
Precipitation  
Precipitation 0.03 in - - ()
Sea Level Pressure  
Sea Level Pressure 29.88 in    
Wind  
Wind Speed 4 mph (South)    
Max Wind Speed 13 mph    
Max Gust Speed -    
Visibility 8 miles    
Events Snow    
T = Trace of Precipitation, MM = Missing Value Source: NWS Daily Summary

Daily Weather History Graph

Daily Weather History Graph

Search for Another Location

Airport:

Trip Planner

Search our weather history database for the weather conditions in past years. The results will help you decide how hot, cold, wet, or windy it might be!

Date:

Astronomy

Jan. 18, 2013 Rise Set
Actual Time 7:44 AM CST 4:55 PM CST
Civil Twilight 7:11 AM CST 5:28 PM CST
Nautical Twilight 6:34 AM CST 6:05 PM CST
Astronomical Twilight 5:59 AM CST 6:41 PM CST
Moon 10:57 AM CST (1/18) 12:11 AM CST (1/18)
Length of Visible Light 10h 17m
Length of Day
9h 11m
Waxing Crescent, 47% of the Moon is Illuminated
Jan 18
Waxing Crescent
Jan 18
First Quarter
Jan 26
Full
Feb 3
Last Quarter
Feb 10
New

Hourly Weather History & Observations

Time (CST) Temp. Windchill Dew Point Humidity Pressure Visibility Wind Dir Wind Speed Gust Speed Precip Events Conditions
12:15 AM 8.6 °F - 3.2 °F 79% 30.28 in 10.0 mi Calm Calm - N/A   Scattered Clouds
12:35 AM 8.6 °F - 3.2 °F 79% 30.27 in 10.0 mi Calm Calm - N/A   Scattered Clouds
12:55 AM 8.6 °F 2.0 °F 3.2 °F 79% 30.26 in 10.0 mi South 3.5 mph - N/A   Mostly Cloudy
1:15 AM 8.6 °F 0.1 °F 5.0 °F 85% 30.26 in 10.0 mi South 4.6 mph - N/A   Overcast
1:35 AM 10.4 °F 0.8 °F 5.0 °F 79% 30.25 in 10.0 mi South 5.8 mph - N/A   Overcast
1:55 AM 10.4 °F 0.8 °F 5.0 °F 79% 30.23 in 10.0 mi South 5.8 mph - N/A   Overcast
2:15 AM 10.4 °F 0.8 °F 6.8 °F 85% 30.22 in 3.0 mi South 5.8 mph - N/A Snow Light Snow
2:35 AM 12.2 °F 1.7 °F 8.6 °F 85% 30.22 in 2.5 mi South 6.9 mph - N/A Snow Light Snow
2:55 AM 12.2 °F 0.7 °F 8.6 °F 85% 30.20 in 2.5 mi South 8.1 mph - N/A Snow Light Snow
3:15 AM 12.2 °F 1.7 °F 8.6 °F 85% 30.19 in 2.0 mi South 6.9 mph - N/A Snow Light Snow
3:35 AM 12.2 °F 1.7 °F 8.6 °F 85% 30.16 in 1.8 mi South 6.9 mph - N/A Snow Light Snow
3:55 AM 12.2 °F 1.7 °F 10.4 °F 92% 30.14 in 2.0 mi South 6.9 mph - N/A Snow Light Snow
4:15 AM 14.0 °F 1.2 °F 10.4 °F 86% 30.11 in 2.5 mi South 10.4 mph - N/A Snow Light Snow
4:35 AM 14.0 °F 2.0 °F 10.4 °F 86% 30.09 in 2.0 mi South 9.2 mph - N/A Snow Light Snow
4:55 AM 14.0 °F -0.2 °F 10.4 °F 86% 30.07 in 2.0 mi South 12.7 mph - N/A Snow Light Snow
5:15 AM 14.0 °F 1.2 °F 10.4 °F 86% 30.05 in 2.0 mi South 10.4 mph - N/A Snow Light Snow
5:35 AM 14.0 °F 0.5 °F 10.4 °F 86% 30.02 in 3.0 mi SSE 11.5 mph - N/A Snow Light Snow
5:55 AM 14.0 °F 5.1 °F 10.4 °F 86% 30.02 in 10.0 mi SSE 5.8 mph - N/A   Overcast
6:15 AM 14.0 °F 2.0 °F 10.4 °F 86% 29.98 in 10.0 mi SSE 9.2 mph - N/A   Overcast
6:35 AM 15.8 °F 2.7 °F 12.2 °F 86% 29.97 in 10.0 mi SSE 11.5 mph - N/A   Overcast
6:55 AM 17.6 °F 9.3 °F 12.2 °F 79% 29.96 in 10.0 mi South 5.8 mph - N/A   Overcast
7:15 AM 17.6 °F 8.2 °F 12.2 °F 79% 29.94 in 10.0 mi South 6.9 mph - N/A   Overcast
7:35 AM 17.6 °F 8.2 °F 12.2 °F 79% 29.93 in 10.0 mi South 6.9 mph - N/A   Overcast
7:55 AM 17.6 °F 5.7 °F 14.0 °F 86% 29.91 in 10.0 mi South 10.4 mph - N/A   Overcast
8:15 AM 19.4 °F 8.6 °F 14.0 °F 80% 29.90 in 10.0 mi South 9.2 mph - N/A   Overcast
8:35 AM 19.4 °F 11.5 °F 14.0 °F 80% 29.90 in 10.0 mi South 5.8 mph - N/A   Overcast
8:55 AM 19.4 °F 11.5 °F 14.0 °F 80% 29.88 in 10.0 mi SSE 5.8 mph - N/A   Overcast
9:15 AM 21.2 °F 10.9 °F 15.8 °F 80% 29.86 in 10.0 mi South 9.2 mph - N/A   Overcast
9:55 AM 23.0 °F 13.1 °F 17.6 °F 80% 29.86 in 10.0 mi South 9.2 mph - N/A   Overcast
10:15 AM 23.0 °F 14.7 °F 19.4 °F 86% 29.86 in 10.0 mi SSW 6.9 mph - N/A   Overcast
10:35 AM 23.0 °F 13.9 °F 19.4 °F 86% 29.84 in 10.0 mi South 8.1 mph - N/A   Mostly Cloudy
10:55 AM 24.8 °F 15.3 °F 19.4 °F 80% 29.81 in 10.0 mi South 9.2 mph - N/A   Mostly Cloudy
11:15 AM 26.6 °F 18.2 °F 19.4 °F 74% 29.79 in 10.0 mi South 8.1 mph - N/A   Scattered Clouds
11:35 AM 26.6 °F - 21.2 °F 80% 29.78 in 10.0 mi Calm Calm - N/A   Scattered Clouds
11:55 AM 28.4 °F - 21.2 °F 74% 29.78 in 10.0 mi Calm Calm - N/A   Mostly Cloudy
12:15 PM 28.4 °F - 21.2 °F 74% 29.76 in 10.0 mi Calm Calm - N/A   Overcast
12:35 PM 30.2 °F - 23.0 °F 75% 29.75 in 10.0 mi Calm Calm - N/A   Overcast
12:55 PM 30.2 °F - 23.0 °F 75% 29.73 in 10.0 mi Calm Calm - 0.01 in   Mostly Cloudy
1:15 PM 30.2 °F - 23.0 °F 75% 29.72 in 10.0 mi Calm Calm - 0.02 in   Clear
1:35 PM 32.0 °F - 23.0 °F 69% 29.70 in 10.0 mi Calm Calm - 0.02 in   Clear
1:55 PM 32.0 °F - 23.0 °F 69% 29.72 in 10.0 mi Calm Calm - 0.02 in   Clear
2:15 PM 32.0 °F - 23.0 °F 69% 29.72 in 10.0 mi Calm Calm - N/A   Clear
2:35 PM 32.0 °F - 24.8 °F 75% 29.71 in 10.0 mi Calm Calm - N/A   Clear
2:55 PM 32.0 °F - 26.6 °F 80% 29.71 in 10.0 mi Calm Calm - N/A   Scattered Clouds
3:15 PM 35.6 °F 28.6 °F 28.4 °F 75% 29.73 in 10.0 mi WNW 9.2 mph - N/A   Mostly Cloudy
3:35 PM 33.8 °F 27.7 °F 28.4 °F 81% 29.73 in 10.0 mi NNW 6.9 mph - N/A   Overcast
3:55 PM 32.0 °F - 26.6 °F 80% 29.70 in 10.0 mi Calm Calm - N/A   Scattered Clouds
4:15 PM 32.0 °F 27.5 °F 26.6 °F 80% 29.69 in 10.0 mi South 4.6 mph - N/A   Clear
4:35 PM 32.0 °F - 28.4 °F 87% 29.71 in 10.0 mi Calm Calm - N/A   Mostly Cloudy
4:55 PM 32.0 °F 27.5 °F 28.4 °F 87% 29.73 in 10.0 mi NNW 4.6 mph - N/A   Overcast
5:15 PM 32.0 °F 27.5 °F 26.6 °F 80% 29.73 in 10.0 mi NNE 4.6 mph - N/A   Overcast
5:35 PM 30.2 °F 24.3 °F 24.8 °F 80% 29.73 in 10.0 mi North 5.8 mph - N/A   Overcast
5:55 PM 28.4 °F 24.6 °F 23.0 °F 80% 29.73 in 10.0 mi NNE 3.5 mph - N/A   Mostly Cloudy
6:15 PM 28.4 °F - 23.0 °F 80% 29.74 in 10.0 mi Calm Calm - N/A   Scattered Clouds
6:35 PM 24.8 °F - 21.2 °F 86% 29.75 in 10.0 mi Calm Calm - N/A   Clear
6:55 PM 26.6 °F 22.6 °F 21.2 °F 80% 29.76 in 10.0 mi NNE 3.5 mph - N/A   Clear
7:15 PM 24.8 °F - 21.2 °F 86% 29.77 in 10.0 mi Calm Calm - N/A   Clear
7:35 PM 23.0 °F - 19.4 °F 86% 29.76 in 10.0 mi Calm Calm - N/A   Scattered Clouds
7:55 PM 21.2 °F - 19.4 °F 93% 29.77 in 10.0 mi Calm Calm - N/A   Scattered Clouds
8:15 PM 21.2 °F - 17.6 °F 86% 29.77 in 10.0 mi Calm Calm - N/A   Mostly Cloudy
8:35 PM 23.0 °F - 19.4 °F 86% 29.76 in 10.0 mi Calm Calm - N/A   Mostly Cloudy
8:55 PM 19.4 °F - 17.6 °F 93% 29.76 in 7.0 mi Calm Calm - N/A   Scattered Clouds
9:35 PM 17.6 °F - 14.0 °F 86% 29.76 in 7.0 mi Calm Calm - N/A   Mostly Cloudy
9:55 PM 17.6 °F - 15.8 °F 93% 29.76 in 7.0 mi Calm Calm - N/A   Mostly Cloudy
10:15 PM 19.4 °F - 19.4 °F 100% 29.74 in 10.0 mi Calm Calm - N/A   Scattered Clouds
10:35 PM 19.4 °F - 17.6 °F 93% 29.76 in 7.0 mi Calm Calm - N/A   Clear
10:55 PM 19.4 °F - 17.6 °F 93% 29.76 in 10.0 mi Calm Calm - N/A   Clear
11:15 PM 19.4 °F - 17.6 °F 93% 29.78 in 7.0 mi Calm Calm - N/A   Clear
11:35 PM 19.4 °F - 19.4 °F 100% 29.78 in 10.0 mi Calm Calm - N/A   Scattered Clouds
11:55 PM 21.2 °F - 19.4 °F 93% 29.77 in 7.0 mi Calm Calm - N/A   Mostly Cloudy